This is the latest recevied weather packets stored in our database for station/object VK4TOM-13. If no packets are shown the sender has not sent any weather packets the latest 10 day(s).
| Time | Temp. | Humidity | Pressure | Rain* | Wind** | Luminosity | Snow |
|---|---|---|---|---|---|---|---|
| 1778236440 | 14.44° C | 49% | 1019.9 hPa | 0 mm | - | - | - |
| 1778235839 | 15° C | 49% | 1019.7 hPa | 0 mm | - | - | - |
| 1778235238 | 15.56° C | 47% | 1019.7 hPa | 0 mm | - | - | - |
| 1778234637 | 15.56° C | 46% | 1019.5 hPa | 0 mm | - | - | - |
| 1778234036 | 16.11° C | 45% | 1019.3 hPa | 0 mm | - | - | - |
| 1778233435 | 16.11° C | 43% | 1019.2 hPa | 0 mm | - | - | - |
| 1778232834 | 16.67° C | 42% | 1019 hPa | 0 mm | - | - | - |
| 1778232233 | 16.67° C | 42% | 1018.9 hPa | 0 mm | - | - | - |
| 1778231632 | 16.67° C | 41% | 1019 hPa | 0 mm | - | - | - |
| 1778231031 | 16.67° C | 40% | 1018.8 hPa | 0 mm | - | - | - |
| 1778230430 | 17.22° C | 40% | 1018.6 hPa | 0 mm | - | - | - |
| 1778229828 | 17.22° C | 38% | 1018.4 hPa | 0 mm | - | - | - |
| 1778229227 | 17.78° C | 37% | 1018.2 hPa | 0 mm | - | - | - |
| 1778228627 | 18.33° C | 36% | 1018.1 hPa | 0 mm | - | - | - |
| 1778228025 | 18.33° C | 35% | 1017.9 hPa | 0 mm | - | - | - |
| 1778227424 | 19.44° C | 33% | 1017.9 hPa | 0 mm | - | - | - |
| 1778226823 | 20° C | 31% | 1017.7 hPa | 0 mm | - | - | - |
| 1778226222 | 20.56° C | 30% | 1017.6 hPa | 0 mm | - | - | - |
| 1778225621 | 21.11° C | 28% | 1017.3 hPa | 0 mm | - | - | - |
| 1778225020 | 22.22° C | 26% | 1017.1 hPa | 0 mm | - | - | - |
| 1778224419 | 22.78° C | 23% | 1017 hPa | 0 mm | - | - | - |
| 1778223818 | 23.33° C | 23% | 1016.8 hPa | 0 mm | - | - | - |
| 1778223217 | 23.89° C | 21% | 1016.5 hPa | 0 mm | - | - | - |
| 1778222615 | 24.44° C | 21% | 1016.4 hPa | 0 mm | - | - | - |
| 1778222015 | 24.44° C | 20% | 1016.4 hPa | 0 mm | - | - | - |
* Rain since midnight (hover to see other rain measurements)
** Current wind speed in m/s (hover to see current wind gust speed)